Year,Month,Day,Hour,Minute,Value (Times are PST for temperature in C)
2003,07,29,00,00,20.50
2003,07,29,00,01,20.50
2003,07,29,00,02,20.50
2003,07,29,00,03,20.50
2003,07,29,00,04,20.50
2003,07,29,00,05,20.50
2003,07,29,00,06,20.50
2003,07,29,00,07,20.50
2003,07,29,00,08,20.60
2003,07,29,00,09,20.70
2003,07,29,00,10,20.80
2003,07,29,00,11,20.90
2003,07,29,00,12,20.90
2003,07,29,00,13,20.80
2003,07,29,00,14,20.80
2003,07,29,00,15,20.70
2003,07,29,00,16,20.80
2003,07,29,00,17,20.80
2003,07,29,00,18,20.90
2003,07,29,00,19,20.90
2003,07,29,00,20,20.80
2003,07,29,00,21,20.70
2003,07,29,00,22,20.70
2003,07,29,00,23,20.70
2003,07,29,00,24,20.80
2003,07,29,00,25,20.80
2003,07,29,00,26,20.80
2003,07,29,00,27,20.80
2003,07,29,00,28,20.70
2003,07,29,00,29,20.60
2003,07,29,00,30,20.50
2003,07,29,00,31,20.50
2003,07,29,00,32,20.50
2003,07,29,00,33,20.60
2003,07,29,00,34,20.60
2003,07,29,00,35,20.60
2003,07,29,00,36,20.60
2003,07,29,00,37,20.50
2003,07,29,00,38,20.40
2003,07,29,00,39,20.30
2003,07,29,00,40,20.20
2003,07,29,00,41,20.30
2003,07,29,00,42,20.30
2003,07,29,00,43,20.40
2003,07,29,00,44,20.40
2003,07,29,00,45,20.30
2003,07,29,00,46,20.20
2003,07,29,00,47,20.10
2003,07,29,00,48,20.10
2003,07,29,00,49,20.20
2003,07,29,00,50,20.30
2003,07,29,00,51,20.40
2003,07,29,00,52,20.50
2003,07,29,00,53,20.40
2003,07,29,00,54,20.50
2003,07,29,00,55,20.50
2003,07,29,00,56,20.40
2003,07,29,00,57,20.40
2003,07,29,00,58,20.40
2003,07,29,00,59,20.50
2003,07,29,01,00,20.50
2003,07,29,01,01,20.40
2003,07,29,01,02,20.40
2003,07,29,01,03,20.40
2003,07,29,01,04,20.40
2003,07,29,01,05,20.50
2003,07,29,01,06,20.40
2003,07,29,01,07,20.40
2003,07,29,01,08,20.40
2003,07,29,01,09,20.30
2003,07,29,01,10,20.30
2003,07,29,01,11,20.20
2003,07,29,01,12,20.20
2003,07,29,01,13,20.20
2003,07,29,01,14,20.20
2003,07,29,01,15,20.20
2003,07,29,01,16,20.20
2003,07,29,01,17,20.20
2003,07,29,01,18,20.20
2003,07,29,01,19,20.20
2003,07,29,01,20,20.20
2003,07,29,01,21,20.20
2003,07,29,01,22,20.20
2003,07,29,01,23,20.20
2003,07,29,01,24,20.20
2003,07,29,01,25,20.20
2003,07,29,01,26,20.10
2003,07,29,01,27,20.00
2003,07,29,01,28,19.90
2003,07,29,01,29,19.80
2003,07,29,01,30,19.80
2003,07,29,01,31,19.80
2003,07,29,01,32,19.80
2003,07,29,01,33,19.80
2003,07,29,01,34,19.80
2003,07,29,01,35,19.70
2003,07,29,01,36,19.70
2003,07,29,01,37,19.60
2003,07,29,01,38,19.60
2003,07,29,01,39,19.60
2003,07,29,01,40,19.60
2003,07,29,01,41,19.50
2003,07,29,01,42,19.50
2003,07,29,01,43,19.40
2003,07,29,01,44,19.40
2003,07,29,01,45,19.30
2003,07,29,01,46,19.30
2003,07,29,01,47,19.30
2003,07,29,01,48,19.40
2003,07,29,01,49,19.40
2003,07,29,01,50,19.50
2003,07,29,01,51,19.40
2003,07,29,01,52,19.30
2003,07,29,01,53,19.30
2003,07,29,01,54,19.30
2003,07,29,01,55,19.40
2003,07,29,01,56,19.50
2003,07,29,01,57,19.60
2003,07,29,01,58,19.50
2003,07,29,01,59,19.40
2003,07,29,02,00,19.40
2003,07,29,02,01,19.30
2003,07,29,02,02,19.30
2003,07,29,02,03,19.30
2003,07,29,02,04,19.30
2003,07,29,02,05,19.30
2003,07,29,02,06,19.30
2003,07,29,02,07,19.20
2003,07,29,02,08,19.10
2003,07,29,02,09,19.10
2003,07,29,02,10,19.10
2003,07,29,02,11,19.00
2003,07,29,02,12,18.90
2003,07,29,02,13,18.90
2003,07,29,02,14,18.90
2003,07,29,02,15,18.90
2003,07,29,02,16,18.90
2003,07,29,02,17,18.90
2003,07,29,02,18,18.90
2003,07,29,02,19,19.00
2003,07,29,02,20,19.10
2003,07,29,02,21,19.20
2003,07,29,02,22,19.20
2003,07,29,02,23,19.10
2003,07,29,02,24,19.10
2003,07,29,02,25,19.20
2003,07,29,02,26,19.20
2003,07,29,02,27,19.30
2003,07,29,02,28,19.30
2003,07,29,02,29,19.30
2003,07,29,02,30,19.30
2003,07,29,02,31,19.20
2003,07,29,02,32,19.20
2003,07,29,02,33,19.10
2003,07,29,02,34,19.10
2003,07,29,02,35,19.10
2003,07,29,02,36,19.00
2003,07,29,02,37,18.90
2003,07,29,02,38,18.90
2003,07,29,02,39,18.90
2003,07,29,02,40,18.90
2003,07,29,02,41,18.90
2003,07,29,02,42,18.90
2003,07,29,02,43,18.90
2003,07,29,02,44,18.90
2003,07,29,02,45,18.90
2003,07,29,02,46,18.90
2003,07,29,02,47,18.90
2003,07,29,02,48,18.80
2003,07,29,02,49,18.80
2003,07,29,02,50,18.80
2003,07,29,02,51,18.70
2003,07,29,02,52,18.70
2003,07,29,02,53,18.60
2003,07,29,02,54,18.50
2003,07,29,02,55,18.50
2003,07,29,02,56,18.40
2003,07,29,02,57,18.40
2003,07,29,02,58,18.30
2003,07,29,02,59,18.30
2003,07,29,03,00,18.30
2003,07,29,03,01,18.30
2003,07,29,03,02,18.40
2003,07,29,03,03,18.40
2003,07,29,03,04,18.40
2003,07,29,03,05,18.50
2003,07,29,03,06,18.50
2003,07,29,03,07,18.50
2003,07,29,03,08,18.60
2003,07,29,03,09,18.60
2003,07,29,03,10,18.60
2003,07,29,03,11,18.60
2003,07,29,03,12,18.60
2003,07,29,03,13,18.70
2003,07,29,03,14,18.70
2003,07,29,03,15,18.70
2003,07,29,03,16,18.70
2003,07,29,03,17,18.70
2003,07,29,03,18,18.70
2003,07,29,03,19,18.70
2003,07,29,03,20,18.60
2003,07,29,03,21,18.60
2003,07,29,03,22,18.60
2003,07,29,03,23,18.60
2003,07,29,03,24,18.60
2003,07,29,03,25,18.60
2003,07,29,03,26,18.60
2003,07,29,03,27,18.60
2003,07,29,03,28,18.60
2003,07,29,03,29,18.60
2003,07,29,03,30,18.60
2003,07,29,03,31,18.50
2003,07,29,03,32,18.50
2003,07,29,03,33,18.40
2003,07,29,03,34,18.30
2003,07,29,03,35,18.20
2003,07,29,03,36,18.20
2003,07,29,03,37,18.20
2003,07,29,03,38,18.20
2003,07,29,03,39,18.20
2003,07,29,03,40,18.30
2003,07,29,03,41,18.40
2003,07,29,03,42,18.50
2003,07,29,03,43,18.60
2003,07,29,03,44,18.70
2003,07,29,03,45,18.80
2003,07,29,03,46,18.90
2003,07,29,03,47,19.10
2003,07,29,03,48,19.10
2003,07,29,03,49,19.10
2003,07,29,03,50,19.20
2003,07,29,03,51,19.20
2003,07,29,03,52,19.30
2003,07,29,03,53,19.30
2003,07,29,03,54,19.30
2003,07,29,03,55,19.30
2003,07,29,03,56,19.30
2003,07,29,03,57,19.30
2003,07,29,03,58,19.30
2003,07,29,03,59,19.20
2003,07,29,04,00,19.20
2003,07,29,04,01,19.10
2003,07,29,04,02,19.10
2003,07,29,04,03,19.00
2003,07,29,04,04,18.90
2003,07,29,04,05,18.90
2003,07,29,04,06,18.90
2003,07,29,04,07,18.80
2003,07,29,04,08,18.80
2003,07,29,04,09,18.70
2003,07,29,04,10,18.70
2003,07,29,04,11,18.60
2003,07,29,04,12,18.60
2003,07,29,04,13,18.60
2003,07,29,04,14,18.50
2003,07,29,04,15,18.50
2003,07,29,04,16,18.40
2003,07,29,04,17,18.40
2003,07,29,04,18,18.30
2003,07,29,04,19,18.30
2003,07,29,04,20,18.30
2003,07,29,04,21,18.30
2003,07,29,04,22,18.30
2003,07,29,04,23,18.30
2003,07,29,04,24,18.30
2003,07,29,04,25,18.40
2003,07,29,04,26,18.50
2003,07,29,04,27,18.50
2003,07,29,04,28,18.50
2003,07,29,04,29,18.60
2003,07,29,04,30,18.60
2003,07,29,04,31,18.60
2003,07,29,04,32,18.70
2003,07,29,04,33,18.80
2003,07,29,04,34,18.90
2003,07,29,04,35,19.00
2003,07,29,04,36,19.10
2003,07,29,04,37,19.10
2003,07,29,04,38,19.10
2003,07,29,04,39,19.10
2003,07,29,04,40,19.10
2003,07,29,04,41,19.10
2003,07,29,04,42,19.20
2003,07,29,04,43,19.20
2003,07,29,04,44,19.10
2003,07,29,04,45,19.00
2003,07,29,04,46,18.80
2003,07,29,04,47,18.60
2003,07,29,04,48,18.40
2003,07,29,04,49,18.20
2003,07,29,04,50,18.10
2003,07,29,04,51,17.90
2003,07,29,04,52,17.80
2003,07,29,04,53,17.70
2003,07,29,04,54,17.60
2003,07,29,04,55,17.60
2003,07,29,04,56,17.50
2003,07,29,04,57,17.50
2003,07,29,04,58,17.40
2003,07,29,04,59,17.40
2003,07,29,05,00,17.30
2003,07,29,05,01,17.30
2003,07,29,05,02,17.30
2003,07,29,05,03,17.20
2003,07,29,05,04,17.20
2003,07,29,05,05,17.20
2003,07,29,05,06,17.10
2003,07,29,05,07,17.10
2003,07,29,05,08,17.10
2003,07,29,05,09,17.00
2003,07,29,05,10,17.00
2003,07,29,05,11,17.00
2003,07,29,05,12,17.00
2003,07,29,05,13,17.10
2003,07,29,05,14,17.10
2003,07,29,05,15,17.10
2003,07,29,05,16,17.10
2003,07,29,05,17,17.10
2003,07,29,05,18,17.20
2003,07,29,05,19,17.20
2003,07,29,05,20,17.30
2003,07,29,05,21,17.30
2003,07,29,05,22,17.30
2003,07,29,05,23,17.30
2003,07,29,05,24,17.30
2003,07,29,05,25,17.30
2003,07,29,05,26,17.30
2003,07,29,05,27,17.30
2003,07,29,05,28,17.30
2003,07,29,05,29,17.30
2003,07,29,05,30,17.30
2003,07,29,05,31,17.30
2003,07,29,05,32,17.30
2003,07,29,05,33,17.30
2003,07,29,05,34,17.30
2003,07,29,05,35,17.30
2003,07,29,05,36,17.30
2003,07,29,05,37,17.30
2003,07,29,05,38,17.30
2003,07,29,05,39,17.40
2003,07,29,05,40,17.50
2003,07,29,05,41,17.70
2003,07,29,05,42,17.80
2003,07,29,05,43,17.90
2003,07,29,05,44,18.00
2003,07,29,05,45,18.10
2003,07,29,05,46,18.20
2003,07,29,05,47,18.20
2003,07,29,05,48,18.30
2003,07,29,05,49,18.30
2003,07,29,05,50,18.30
2003,07,29,05,51,18.30
2003,07,29,05,52,18.30
2003,07,29,05,53,18.30
2003,07,29,05,54,18.30
2003,07,29,05,55,18.20
2003,07,29,05,56,18.20
2003,07,29,05,57,18.10
2003,07,29,05,58,18.00
2003,07,29,05,59,17.90
2003,07,29,06,00,17.80
2003,07,29,06,01,17.70
2003,07,29,06,02,17.50
2003,07,29,06,03,17.50
2003,07,29,06,04,17.40
2003,07,29,06,05,17.30
2003,07,29,06,06,17.30
2003,07,29,06,07,17.30
2003,07,29,06,08,17.20
2003,07,29,06,09,17.20
2003,07,29,06,10,17.30
2003,07,29,06,11,17.30
2003,07,29,06,12,17.30
2003,07,29,06,13,17.30
2003,07,29,06,14,17.40
2003,07,29,06,15,17.40
2003,07,29,06,16,17.40
2003,07,29,06,17,17.50
2003,07,29,06,18,17.50
2003,07,29,06,19,17.50
2003,07,29,06,20,17.50
2003,07,29,06,21,17.60
2003,07,29,06,22,17.70
2003,07,29,06,23,17.70
2003,07,29,06,24,17.60
2003,07,29,06,25,17.60
2003,07,29,06,26,17.70
2003,07,29,06,27,17.80
2003,07,29,06,28,17.90
2003,07,29,06,29,17.90
2003,07,29,06,30,18.00
2003,07,29,06,31,18.10
2003,07,29,06,32,18.20
2003,07,29,06,33,18.20
2003,07,29,06,34,18.30
2003,07,29,06,35,18.30
2003,07,29,06,36,18.40
2003,07,29,06,37,18.50
2003,07,29,06,38,18.50
2003,07,29,06,39,18.50
2003,07,29,06,40,18.40
2003,07,29,06,41,18.40
2003,07,29,06,42,18.30
2003,07,29,06,43,18.20
2003,07,29,06,44,18.20
2003,07,29,06,45,18.20
2003,07,29,06,46,18.20
2003,07,29,06,47,18.20
2003,07,29,06,48,18.20
2003,07,29,06,49,18.30
2003,07,29,06,50,18.30
2003,07,29,06,51,18.40
2003,07,29,06,52,18.40
2003,07,29,06,53,18.50
2003,07,29,06,54,18.50
2003,07,29,06,55,18.50
2003,07,29,06,56,18.50
2003,07,29,06,57,18.50
2003,07,29,06,58,18.60
2003,07,29,06,59,18.60
2003,07,29,07,00,18.70
2003,07,29,07,01,18.70
2003,07,29,07,02,18.80
2003,07,29,07,03,18.80
2003,07,29,07,04,18.80
2003,07,29,07,05,18.70
2003,07,29,07,06,18.70
2003,07,29,07,07,18.70
2003,07,29,07,08,18.70
2003,07,29,07,09,18.70
2003,07,29,07,10,18.80
2003,07,29,07,11,18.80
2003,07,29,07,12,18.80
2003,07,29,07,13,18.80
2003,07,29,07,14,18.90
2003,07,29,07,15,18.90
2003,07,29,07,16,18.90
2003,07,29,07,17,18.90
2003,07,29,07,18,18.90
2003,07,29,07,19,18.90
2003,07,29,07,20,19.00
2003,07,29,07,21,19.10
2003,07,29,07,22,19.10
2003,07,29,07,23,19.10
2003,07,29,07,24,19.10
2003,07,29,07,25,19.20
2003,07,29,07,26,19.20
2003,07,29,07,27,19.20
2003,07,29,07,28,19.20
2003,07,29,07,29,19.30
2003,07,29,07,30,19.30
2003,07,29,07,31,19.30
2003,07,29,07,32,19.30
2003,07,29,07,33,19.30
2003,07,29,07,34,19.40
2003,07,29,07,35,19.40
2003,07,29,07,36,19.50
2003,07,29,07,37,19.50
2003,07,29,07,38,19.60
2003,07,29,07,39,19.70
2003,07,29,07,40,19.80
2003,07,29,07,41,19.90
2003,07,29,07,42,19.90
2003,07,29,07,43,20.00
2003,07,29,07,44,20.10
2003,07,29,07,45,20.10
2003,07,29,07,46,20.10
2003,07,29,07,47,20.10
2003,07,29,07,48,20.20
2003,07,29,07,49,20.20
2003,07,29,07,50,20.20
2003,07,29,07,51,20.20
2003,07,29,07,52,20.20
2003,07,29,07,53,20.20
2003,07,29,07,54,20.30
2003,07,29,07,55,20.40
2003,07,29,07,56,20.50
2003,07,29,07,57,20.50
2003,07,29,07,58,20.70
2003,07,29,07,59,20.80
2003,07,29,08,00,20.90
2003,07,29,08,01,21.00
2003,07,29,08,02,21.20
2003,07,29,08,03,21.40
2003,07,29,08,04,21.60
2003,07,29,08,05,21.90
2003,07,29,08,06,22.10
2003,07,29,08,07,22.10
2003,07,29,08,08,22.20
2003,07,29,08,09,22.30
2003,07,29,08,10,22.40
2003,07,29,08,11,22.40
2003,07,29,08,12,22.40
2003,07,29,08,13,22.40
2003,07,29,08,14,22.40
2003,07,29,08,15,22.30
2003,07,29,08,16,22.20
2003,07,29,08,17,22.10
2003,07,29,08,18,22.00
2003,07,29,08,19,22.00
2003,07,29,08,20,21.90
2003,07,29,08,21,21.80
2003,07,29,08,22,21.70
2003,07,29,08,23,21.80
2003,07,29,08,24,21.90
2003,07,29,08,25,22.00
2003,07,29,08,26,21.90
2003,07,29,08,27,21.90
2003,07,29,08,28,21.90
2003,07,29,08,29,21.80
2003,07,29,08,30,21.90
2003,07,29,08,31,21.80
2003,07,29,08,32,21.70
2003,07,29,08,33,21.70
2003,07,29,08,34,21.80
2003,07,29,08,35,22.00
2003,07,29,08,36,22.10
2003,07,29,08,37,22.20
2003,07,29,08,38,22.10
2003,07,29,08,39,22.10
2003,07,29,08,40,22.00
2003,07,29,08,41,22.00
2003,07,29,08,42,22.00
2003,07,29,08,43,21.90
2003,07,29,08,44,21.90
2003,07,29,08,45,22.00
2003,07,29,08,46,22.10
2003,07,29,08,47,22.20
2003,07,29,08,48,22.20
2003,07,29,08,49,22.20
2003,07,29,08,50,22.30
2003,07,29,08,51,22.30
2003,07,29,08,52,22.40
2003,07,29,08,53,22.40
2003,07,29,08,54,22.50
2003,07,29,08,55,22.40
2003,07,29,08,56,22.30
2003,07,29,08,57,22.40
2003,07,29,08,58,22.40
2003,07,29,08,59,22.40
2003,07,29,09,00,22.60
2003,07,29,09,01,22.80
2003,07,29,09,02,23.00
2003,07,29,09,03,23.00
2003,07,29,09,04,22.90
2003,07,29,09,05,22.80
2003,07,29,09,06,22.80
2003,07,29,09,07,22.80
2003,07,29,09,08,22.80
2003,07,29,09,09,22.70
2003,07,29,09,10,22.70
2003,07,29,09,11,22.80
2003,07,29,09,12,22.90
2003,07,29,09,13,23.00
2003,07,29,09,14,22.90
2003,07,29,09,15,22.90
2003,07,29,09,16,22.90
2003,07,29,09,17,22.90
2003,07,29,09,18,22.90
2003,07,29,09,19,22.80
2003,07,29,09,20,22.80
2003,07,29,09,21,22.90
2003,07,29,09,22,22.90
2003,07,29,09,23,23.00
2003,07,29,09,24,23.00
2003,07,29,09,25,22.90
2003,07,29,09,26,23.00
2003,07,29,09,27,23.20
2003,07,29,09,28,23.30
2003,07,29,09,29,23.40
2003,07,29,09,30,23.40
2003,07,29,09,31,23.30
2003,07,29,09,32,23.30
2003,07,29,09,33,23.30
2003,07,29,09,34,23.20
2003,07,29,09,35,23.20
2003,07,29,09,36,23.30
2003,07,29,09,37,23.30
2003,07,29,09,38,23.40
2003,07,29,09,39,23.40
2003,07,29,09,40,23.50
2003,07,29,09,41,23.60
2003,07,29,09,42,23.50
2003,07,29,09,43,23.50
2003,07,29,09,44,23.40
2003,07,29,09,45,23.40
2003,07,29,09,46,23.50
2003,07,29,09,47,23.60
2003,07,29,09,48,23.70
2003,07,29,09,49,23.80
2003,07,29,09,50,23.80
2003,07,29,09,51,23.80
2003,07,29,09,52,23.90
2003,07,29,09,53,23.90
2003,07,29,09,54,23.90
2003,07,29,09,55,23.90
2003,07,29,09,56,24.00
2003,07,29,09,57,24.10
2003,07,29,09,58,24.10
2003,07,29,09,59,24.20
2003,07,29,10,00,24.20
2003,07,29,10,01,24.30
2003,07,29,10,02,24.30
2003,07,29,10,03,24.30
2003,07,29,10,04,24.30
2003,07,29,10,05,24.30
2003,07,29,10,06,24.40
2003,07,29,10,07,24.50
2003,07,29,10,08,24.60
2003,07,29,10,09,24.80
2003,07,29,10,10,24.90
2003,07,29,10,11,24.90
2003,07,29,10,12,24.90
2003,07,29,10,13,24.90
2003,07,29,10,14,24.90
2003,07,29,10,15,24.90
2003,07,29,10,16,25.10
2003,07,29,10,17,25.30
2003,07,29,10,18,25.30
2003,07,29,10,19,25.40
2003,07,29,10,20,25.40
2003,07,29,10,21,25.40
2003,07,29,10,22,25.40
2003,07,29,10,23,25.50
2003,07,29,10,24,25.60
2003,07,29,10,25,25.80
2003,07,29,10,26,25.90
2003,07,29,10,27,25.90
2003,07,29,10,28,25.90
2003,07,29,10,29,25.90
2003,07,29,10,30,25.90
2003,07,29,10,31,25.80
2003,07,29,10,32,25.70
2003,07,29,10,33,25.60
2003,07,29,10,34,25.50
2003,07,29,10,35,25.40
2003,07,29,10,36,25.30
2003,07,29,10,37,25.20
2003,07,29,10,38,25.30
2003,07,29,10,39,25.30
2003,07,29,10,40,25.30
2003,07,29,10,41,25.30
2003,07,29,10,42,25.30
2003,07,29,10,43,25.30
2003,07,29,10,44,25.30
2003,07,29,10,45,25.10
2003,07,29,10,46,25.00
2003,07,29,10,47,25.10
2003,07,29,10,48,25.10
2003,07,29,10,49,25.10
2003,07,29,10,50,25.00
2003,07,29,10,51,25.00
2003,07,29,10,52,25.00
2003,07,29,10,53,25.10
2003,07,29,10,54,25.20
2003,07,29,10,55,25.40
2003,07,29,10,56,25.60
2003,07,29,10,57,25.70
2003,07,29,10,58,25.80
2003,07,29,10,59,25.90
2003,07,29,11,00,25.90
2003,07,29,11,01,25.90
2003,07,29,11,02,25.90
2003,07,29,11,03,25.80
2003,07,29,11,04,25.80
2003,07,29,11,05,25.80
2003,07,29,11,06,25.70
2003,07,29,11,07,25.80
2003,07,29,11,08,25.80
2003,07,29,11,09,25.80
2003,07,29,11,10,25.70
2003,07,29,11,11,25.70
2003,07,29,11,12,25.70
2003,07,29,11,13,25.70
2003,07,29,11,14,25.70
2003,07,29,11,15,25.50
2003,07,29,11,16,25.40
2003,07,29,11,17,25.30
2003,07,29,11,18,25.40
2003,07,29,11,19,25.60
2003,07,29,11,20,25.70
2003,07,29,11,21,25.80
2003,07,29,11,22,25.90
2003,07,29,11,23,26.00
2003,07,29,11,24,26.10
2003,07,29,11,25,26.10
2003,07,29,11,26,26.10
2003,07,29,11,27,26.10
2003,07,29,11,28,25.90
2003,07,29,11,29,25.90
2003,07,29,11,30,25.80
2003,07,29,11,31,25.60
2003,07,29,11,32,25.40
2003,07,29,11,33,25.40
2003,07,29,11,34,25.30
2003,07,29,11,35,25.20
2003,07,29,11,36,25.30
2003,07,29,11,37,25.30
2003,07,29,11,38,25.30
2003,07,29,11,39,25.30
2003,07,29,11,40,25.20
2003,07,29,11,41,25.10
2003,07,29,11,42,25.00
2003,07,29,11,43,24.90
2003,07,29,11,44,24.80
2003,07,29,11,45,24.90
2003,07,29,11,46,24.90
2003,07,29,11,47,24.90
2003,07,29,11,48,24.90
2003,07,29,11,49,24.90
2003,07,29,11,50,25.00
2003,07,29,11,51,25.10
2003,07,29,11,52,25.30
2003,07,29,11,53,25.40
2003,07,29,11,54,25.50
2003,07,29,11,55,25.60
2003,07,29,11,56,25.80
2003,07,29,11,57,26.00
2003,07,29,11,58,26.10
2003,07,29,11,59,26.10
2003,07,29,12,00,26.20
2003,07,29,12,01,26.40
2003,07,29,12,02,26.30
2003,07,29,12,03,26.00
2003,07,29,12,04,26.00
2003,07,29,12,05,26.00
2003,07,29,12,06,26.10
2003,07,29,12,07,26.20
2003,07,29,12,08,26.20
2003,07,29,12,09,26.30
2003,07,29,12,10,26.30
2003,07,29,12,11,26.10
2003,07,29,12,12,26.00
2003,07,29,12,13,25.80
2003,07,29,12,14,25.80
2003,07,29,12,15,25.90
2003,07,29,12,16,26.00
2003,07,29,12,17,26.10
2003,07,29,12,18,26.20
2003,07,29,12,19,26.40
2003,07,29,12,20,26.50
2003,07,29,12,21,26.60
2003,07,29,12,22,26.60
2003,07,29,12,23,26.60
2003,07,29,12,24,26.60
2003,07,29,12,25,26.60
2003,07,29,12,26,26.60
2003,07,29,12,27,26.60
2003,07,29,12,28,26.60
2003,07,29,12,29,26.60
2003,07,29,12,30,26.70
2003,07,29,12,31,26.90
2003,07,29,12,32,27.10
2003,07,29,12,33,27.30
2003,07,29,12,34,27.20
2003,07,29,12,35,27.20
2003,07,29,12,36,27.20
2003,07,29,12,37,27.10
2003,07,29,12,38,26.90
2003,07,29,12,39,26.80
2003,07,29,12,40,26.90
2003,07,29,12,41,26.80
2003,07,29,12,42,26.70
2003,07,29,12,43,26.70
2003,07,29,12,44,26.50
2003,07,29,12,45,26.30
2003,07,29,12,46,26.30
2003,07,29,12,47,26.30
2003,07,29,12,48,26.30
2003,07,29,12,49,26.30
2003,07,29,12,50,26.20
2003,07,29,12,51,26.20
2003,07,29,12,52,26.30
2003,07,29,12,53,26.40
2003,07,29,12,54,26.40
2003,07,29,12,55,26.60
2003,07,29,12,56,26.60
2003,07,29,12,57,26.80
2003,07,29,12,58,26.90
2003,07,29,12,59,26.90
2003,07,29,13,00,26.80
2003,07,29,13,01,26.80
2003,07,29,13,02,26.90
2003,07,29,13,03,26.70
2003,07,29,13,04,26.60
2003,07,29,13,05,26.60
2003,07,29,13,06,26.60
2003,07,29,13,07,26.70
2003,07,29,13,08,26.90
2003,07,29,13,09,27.10
2003,07,29,13,10,27.30
2003,07,29,13,11,27.50
2003,07,29,13,12,27.60
2003,07,29,13,13,27.60
2003,07,29,13,14,27.60
2003,07,29,13,15,27.80
2003,07,29,13,16,27.90
2003,07,29,13,17,27.90
2003,07,29,13,18,27.80
2003,07,29,13,19,27.70
2003,07,29,13,20,27.60
2003,07,29,13,21,27.60
2003,07,29,13,22,27.70
2003,07,29,13,23,27.70
2003,07,29,13,24,27.70
2003,07,29,13,25,27.80
2003,07,29,13,26,28.00
2003,07,29,13,27,28.20
2003,07,29,13,28,28.20
2003,07,29,13,29,28.20
2003,07,29,13,30,28.40
2003,07,29,13,31,28.50
2003,07,29,13,32,28.70
2003,07,29,13,33,28.80
2003,07,29,13,34,28.90
2003,07,29,13,35,28.90
2003,07,29,13,36,29.00
2003,07,29,13,37,29.10
2003,07,29,13,38,29.20
2003,07,29,13,39,29.30
2003,07,29,13,40,29.20
2003,07,29,13,41,29.10
2003,07,29,13,42,28.90
2003,07,29,13,43,28.90
2003,07,29,13,44,28.80
2003,07,29,13,45,28.80
2003,07,29,13,46,28.50
2003,07,29,13,47,28.10
2003,07,29,13,48,28.00
2003,07,29,13,49,27.80
2003,07,29,13,50,27.70
2003,07,29,13,51,27.60
2003,07,29,13,52,27.70
2003,07,29,13,53,27.80
2003,07,29,13,54,27.90
2003,07,29,13,55,28.00
2003,07,29,13,56,28.00
2003,07,29,13,57,28.10
2003,07,29,13,58,28.30
2003,07,29,13,59,28.40
2003,07,29,14,00,28.50
2003,07,29,14,01,28.60
2003,07,29,14,02,28.70
2003,07,29,14,03,28.60
2003,07,29,14,04,28.40
2003,07,29,14,05,28.20
2003,07,29,14,06,28.00
2003,07,29,14,07,28.00
2003,07,29,14,08,27.90
2003,07,29,14,09,28.00
2003,07,29,14,10,28.00
2003,07,29,14,11,27.90
2003,07,29,14,12,27.80
2003,07,29,14,13,27.60
2003,07,29,14,14,27.50
2003,07,29,14,15,27.60
2003,07,29,14,16,27.70
2003,07,29,14,17,27.60
2003,07,29,14,18,27.60
2003,07,29,14,19,27.60
2003,07,29,14,20,27.70
2003,07,29,14,21,27.70
2003,07,29,14,22,27.80
2003,07,29,14,23,27.80
2003,07,29,14,24,27.80
2003,07,29,14,25,27.80
2003,07,29,14,26,27.60
2003,07,29,14,27,27.60
2003,07,29,14,28,27.60
2003,07,29,14,29,27.60
2003,07,29,14,30,27.70
2003,07,29,14,31,27.80
2003,07,29,14,32,27.80
2003,07,29,14,33,27.90
2003,07,29,14,34,28.10
2003,07,29,14,35,28.20
2003,07,29,14,36,28.40
2003,07,29,14,37,28.40
2003,07,29,14,38,28.30
2003,07,29,14,39,28.20
2003,07,29,14,40,28.20
2003,07,29,14,41,28.30
2003,07,29,14,42,28.50
2003,07,29,14,43,28.70
2003,07,29,14,44,28.80
2003,07,29,14,45,28.80
2003,07,29,14,46,28.80
2003,07,29,14,47,28.60
2003,07,29,14,48,28.50
2003,07,29,14,49,28.40
2003,07,29,14,50,28.40
2003,07,29,14,51,28.30
2003,07,29,14,52,28.10
2003,07,29,14,53,28.10
2003,07,29,14,54,28.00
2003,07,29,14,55,28.00
2003,07,29,14,56,28.00
2003,07,29,14,57,27.90
2003,07,29,14,58,27.90
2003,07,29,14,59,27.90
2003,07,29,15,00,28.00
2003,07,29,15,01,28.10
2003,07,29,15,02,28.00
2003,07,29,15,03,28.00
2003,07,29,15,04,28.00
2003,07,29,15,05,27.90
2003,07,29,15,06,27.90
2003,07,29,15,07,28.10
2003,07,29,15,08,28.40
2003,07,29,15,09,28.60
2003,07,29,15,10,28.70
2003,07,29,15,11,28.80
2003,07,29,15,12,28.80
2003,07,29,15,13,28.70
2003,07,29,15,14,28.60
2003,07,29,15,15,28.70
2003,07,29,15,16,28.60
2003,07,29,15,17,28.60
2003,07,29,15,18,28.50
2003,07,29,15,19,28.40
2003,07,29,15,20,28.40
2003,07,29,15,21,28.30
2003,07,29,15,22,28.30
2003,07,29,15,23,28.30
2003,07,29,15,24,28.20
2003,07,29,15,25,28.30
2003,07,29,15,26,28.40
2003,07,29,15,27,28.30
2003,07,29,15,28,28.40
2003,07,29,15,29,28.50
2003,07,29,15,30,28.60
2003,07,29,15,31,28.50
2003,07,29,15,32,28.40
2003,07,29,15,33,28.40
2003,07,29,15,34,28.60
2003,07,29,15,35,28.50
2003,07,29,15,36,28.40
2003,07,29,15,37,28.30
2003,07,29,15,38,28.20
2003,07,29,15,39,28.10
2003,07,29,15,40,28.10
2003,07,29,15,41,28.00
2003,07,29,15,42,28.10
2003,07,29,15,43,28.20
2003,07,29,15,44,28.30
2003,07,29,15,45,28.30
2003,07,29,15,46,28.20
2003,07,29,15,47,28.10
2003,07,29,15,48,28.00
2003,07,29,15,49,28.10
2003,07,29,15,50,28.10
2003,07,29,15,51,28.20
2003,07,29,15,52,28.10
2003,07,29,15,53,28.10
2003,07,29,15,54,28.20
2003,07,29,15,55,28.10
2003,07,29,15,56,28.20
2003,07,29,15,57,28.10
2003,07,29,15,58,28.20
2003,07,29,15,59,28.20
2003,07,29,16,00,28.30
2003,07,29,16,01,28.30
2003,07,29,16,02,28.40
2003,07,29,16,03,28.60
2003,07,29,16,04,28.60
2003,07,29,16,05,28.60
2003,07,29,16,06,28.60
2003,07,29,16,07,28.70
2003,07,29,16,08,28.70
2003,07,29,16,09,28.70
2003,07,29,16,10,28.60
2003,07,29,16,11,28.60
2003,07,29,16,12,28.50
2003,07,29,16,13,28.40
2003,07,29,16,14,28.30
2003,07,29,16,15,28.30
2003,07,29,16,16,28.50
2003,07,29,16,17,28.70
2003,07,29,16,18,29.10
2003,07,29,16,19,29.50
2003,07,29,16,20,29.90
2003,07,29,16,21,30.30
2003,07,29,16,22,30.70
2003,07,29,16,23,30.80
2003,07,29,16,24,30.80
2003,07,29,16,25,31.10
2003,07,29,16,26,31.30
2003,07,29,16,27,31.30
2003,07,29,16,28,31.30
2003,07,29,16,29,31.30
2003,07,29,16,30,31.40
2003,07,29,16,31,31.50
2003,07,29,16,32,31.80
2003,07,29,16,33,31.90
2003,07,29,16,34,32.20
2003,07,29,16,35,32.30
2003,07,29,16,36,32.30
2003,07,29,16,37,32.30
2003,07,29,16,38,32.40
2003,07,29,16,39,32.50
2003,07,29,16,40,32.70
2003,07,29,16,41,32.90
2003,07,29,16,42,33.00
2003,07,29,16,43,33.00
2003,07,29,16,44,33.00
2003,07,29,16,45,33.00
2003,07,29,16,46,33.00
2003,07,29,16,47,33.00
2003,07,29,16,48,33.10
2003,07,29,16,49,33.00
2003,07,29,16,50,33.10
2003,07,29,16,51,33.00
2003,07,29,16,52,32.90
2003,07,29,16,53,32.80
2003,07,29,16,54,32.80
2003,07,29,16,55,32.70
2003,07,29,16,56,32.50
2003,07,29,16,57,32.40
2003,07,29,16,58,32.30
2003,07,29,16,59,32.50
2003,07,29,17,00,32.50
2003,07,29,17,01,32.60
2003,07,29,17,02,32.50
2003,07,29,17,03,32.50
2003,07,29,17,04,32.50
2003,07,29,17,05,32.40
2003,07,29,17,06,32.20
2003,07,29,17,07,32.20
2003,07,29,17,08,32.10
2003,07,29,17,09,32.10
2003,07,29,17,10,32.00
2003,07,29,17,11,31.80
2003,07,29,17,12,31.90
2003,07,29,17,13,31.90
2003,07,29,17,14,31.90
2003,07,29,17,15,31.80
2003,07,29,17,16,32.00
2003,07,29,17,17,32.00
2003,07,29,17,18,32.00
2003,07,29,17,19,31.90